| time (UTC) | temp F | wind direction | speed MPH | gust MPH | rain 1hr in | rain 24hr in | rain mn in | humidity % | barometer mb |
| 20260508220304 | 60 | 218 | 3.0 | 5.0 | 0.00 | 0.00 | 0.00 | 60 | 1021.2 |
| 20260508215800 | 59 | 197 | 6.0 | 7.0 | 0.00 | 0.00 | 0.00 | 62 | 1021.4 |
| 20260508215257 | 60 | 181 | 9.0 | 10.0 | 0.00 | 0.00 | 0.00 | 62 | 1021.2 |
| 20260508214754 | 60 | 278 | 3.0 | 3.0 | 0.00 | 0.00 | 0.00 | 62 | 1021.0 |
| 20260508214251 | 58 | 231 | 3.0 | 5.0 | 0.00 | 0.00 | 0.00 | 64 | 1021.3 |
| 20260508213748 | 59 | 185 | 6.0 | 7.0 | 0.00 | 0.00 | 0.00 | 63 | 1021.2 |
| 20260508213244 | 59 | 148 | 4.0 | 5.0 | 0.00 | 0.00 | 0.00 | 63 | 1021.3 |
| 20260508212741 | 59 | 187 | 6.0 | 8.0 | 0.00 | 0.00 | 0.00 | 64 | 1021.4 |
| 20260508212237 | 58 | 194 | 13.0 | 15.0 | 0.00 | 0.00 | 0.00 | 65 | 1021.3 |
| 20260508211733 | 59 | 218 | 4.0 | 5.0 | 0.00 | 0.00 | 0.00 | 63 | 1021.3 |
| 20260508211229 | 58 | 248 | 5.0 | 7.0 | 0.00 | 0.00 | 0.00 | 64 | 1021.3 |
| 20260508210727 | 58 | 179 | 6.0 | 9.0 | 0.00 | 0.00 | 0.00 | 65 | 1021.3 |
| 20260508210223 | 57 | 125 | 5.0 | 7.0 | 0.00 | 0.00 | 0.00 | 66 | 1021.4 |
| 20260508205720 | 58 | 136 | 9.0 | 10.0 | 0.00 | 0.00 | 0.00 | 64 | 1021.2 |
| 20260508205217 | 59 | 206 | 6.0 | 9.0 | 0.00 | 0.00 | 0.00 | 65 | 1021.3 |
| 20260508204713 | 58 | 164 | 7.0 | 9.0 | 0.00 | 0.00 | 0.00 | 64 | 1021.3 |
| 20260508204210 | 58 | 212 | 5.0 | 6.0 | 0.00 | 0.00 | 0.00 | 66 | 1021.4 |
| 20260508203706 | 57 | 177 | 6.0 | 8.0 | 0.00 | 0.00 | 0.00 | 66 | 1021.3 |
| 20260508203202 | 56 | 200 | 5.0 | 6.0 | 0.00 | 0.00 | 0.00 | 67 | 1021.3 |
| 20260508202658 | 56 | 172 | 9.0 | 10.0 | 0.00 | 0.00 | 0.00 | 67 | 1021.2 |
| 20260508202155 | 56 | 173 | 5.0 | 5.0 | 0.00 | 0.00 | 0.00 | 67 | 1021.2 |
| 20260508201652 | 56 | 250 | 2.0 | 3.0 | 0.00 | 0.00 | 0.00 | 68 | 1021.1 |
| 20260508201149 | 56 | 243 | 3.0 | 5.0 | 0.00 | 0.00 | 0.00 | 67 | 1021.2 |
| 20260508200646 | 56 | 189 | 2.0 | 5.0 | 0.00 | 0.00 | 0.00 | 68 | 1021.3 |
| 20260508200142 | 56 | 217 | 5.0 | 6.0 | 0.00 | 0.00 | 0.00 | 68 | 1021.3 |
| 20260508195638 | 56 | 202 | 8.0 | 10.0 | 0.00 | 0.00 | 0.00 | 69 | 1021.2 |
| 20260508195135 | 56 | 229 | 9.0 | 11.0 | 0.00 | 0.00 | 0.00 | 68 | 1021.2 |
| 20260508194631 | 56 | 256 | 3.0 | 6.0 | 0.00 | 0.00 | 0.00 | 69 | 1021.0 |
| 20260508194128 | 57 | 197 | 4.0 | 5.0 | 0.00 | 0.00 | 0.00 | 66 | 1021.0 |
| 20260508193625 | 56 | 214 | 6.0 | 8.0 | 0.00 | 0.00 | 0.00 | 68 | 1020.9 |
| 20260508193122 | 56 | 193 | 5.0 | 9.0 | 0.00 | 0.00 | 0.00 | 66 | 1021.1 |
| 20260508192619 | 55 | 204 | 2.0 | 3.0 | 0.00 | 0.00 | 0.00 | 68 | 1021.2 |
| 20260508192116 | 56 | 192 | 6.0 | 7.0 | 0.00 | 0.00 | 0.00 | 67 | 1021.0 |
| 20260508191613 | 56 | 244 | 6.0 | 8.0 | 0.00 | 0.00 | 0.00 | 67 | 1020.9 |
| 20260508191109 | 56 | 229 | 5.0 | 8.0 | 0.00 | 0.00 | 0.00 | 67 | 1021.0 |
| 20260508190607 | 55 | 226 | 6.0 | 8.0 | 0.00 | 0.00 | 0.00 | 68 | 1020.9 |
| 20260508190103 | 55 | 205 | 5.0 | 8.0 | 0.00 | 0.00 | 0.00 | 69 | 1021.0 |
| 20260508185600 | 54 | 182 | 13.0 | 15.0 | 0.00 | 0.00 | 0.00 | 69 | 1020.9 |
| 20260508185057 | 54 | 216 | 7.0 | 10.0 | 0.00 | 0.00 | 0.00 | 70 | 1021.0 |
| 20260508184555 | 54 | 214 | 17.0 | 21.0 | 0.00 | 0.00 | 0.00 | 69 | 1020.9 |
| 20260508184051 | 55 | 193 | 4.0 | 6.0 | 0.00 | 0.00 | 0.00 | 70 | 1020.9 |
| 20260508183548 | 55 | 183 | 4.0 | 7.0 | 0.00 | 0.00 | 0.00 | 69 | 1020.8 |
| 20260508183043 | 54 | 184 | 11.0 | 14.0 | 0.00 | 0.00 | 0.00 | 70 | 1021.0 |
| 20260508182535 | 55 | 192 | 5.0 | 8.0 | 0.00 | 0.00 | 0.00 | 70 | 1020.9 |
| 20260508182032 | 54 | 177 | 11.0 | 14.0 | 0.00 | 0.00 | 0.00 | 71 | 1020.6 |
| 20260508181527 | 55 | 236 | 6.0 | 8.0 | 0.00 | 0.00 | 0.00 | 71 | 1020.6 |
| 20260508181025 | 54 | 252 | 6.0 | 7.0 | 0.00 | 0.00 | 0.00 | 71 | 1020.4 |
| 20260508180521 | 54 | 177 | 7.0 | 8.0 | 0.00 | 0.00 | 0.00 | 70 | 1020.5 |
| 20260508180018 | 54 | 173 | 6.0 | 9.0 | 0.00 | 0.00 | 0.00 | 71 | 1020.4 |
| 20260508175514 | 54 | 201 | 9.0 | 13.0 | 0.00 | 0.00 | 0.00 | 71 | 1020.5 |
| 20260508175012 | 54 | 210 | 4.0 | 6.0 | 0.00 | 0.00 | 0.00 | 73 | 1020.4 |
| 20260508174509 | 54 | 180 | 9.0 | 11.0 | 0.00 | 0.00 | 0.00 | 72 | 1020.2 |
| 20260508174006 | 54 | 222 | 7.0 | 10.0 | 0.00 | 0.00 | 0.00 | 73 | 1020.4 |
| 20260508173503 | 54 | 223 | 5.0 | 7.0 | 0.00 | 0.00 | 0.00 | 74 | 1020.2 |
| 20260508172959 | 54 | 181 | 3.0 | 5.0 | 0.00 | 0.00 | 0.00 | 74 | 1020.2 |
| 20260508172456 | 53 | 226 | 6.0 | 8.0 | 0.00 | 0.00 | 0.00 | 74 | 1019.9 |
| 20260508171952 | 54 | 209 | 5.0 | 7.0 | 0.00 | 0.00 | 0.00 | 74 | 1020.0 |
| 20260508171449 | 54 | 161 | 6.0 | 9.0 | 0.00 | 0.00 | 0.00 | 74 | 1019.7 |
| 20260508170945 | 54 | 267 | 3.0 | 5.0 | 0.00 | 0.00 | 0.00 | 74 | 1019.5 |
| 20260508170443 | 53 | 254 | 1.0 | 1.0 | 0.00 | 0.00 | 0.00 | 75 | 1019.8 |
| 20260508165939 | 53 | 171 | 14.0 | 16.0 | 0.00 | 0.00 | 0.00 | 75 | 1019.8 |
| 20260508165438 | 54 | 191 | 7.0 | 7.0 | 0.00 | 0.00 | 0.00 | 75 | 1019.4 |
| 20260508164933 | 54 | 157 | 5.0 | 8.0 | 0.00 | 0.00 | 0.00 | 74 | 1019.6 |
| 20260508164430 | 53 | 186 | 6.0 | 8.0 | 0.00 | 0.00 | 0.00 | 76 | 1019.4 |
| 20260508163927 | 53 | 179 | 10.0 | 11.0 | 0.00 | 0.00 | 0.00 | 76 | 1019.6 |
| 20260508163425 | 53 | 182 | 5.0 | 6.0 | 0.00 | 0.00 | 0.00 | 76 | 1019.5 |
| 20260508162920 | 53 | 188 | 6.0 | 8.0 | 0.00 | 0.00 | 0.00 | 77 | 1019.5 |
| 20260508162418 | 53 | 198 | 5.0 | 7.0 | 0.00 | 0.00 | 0.00 | 77 | 1019.4 |
| 20260508161914 | 53 | 205 | 8.0 | 10.0 | 0.00 | 0.00 | 0.00 | 76 | 1019.4 |
| 20260508161412 | 52 | 190 | 6.0 | 8.0 | 0.00 | 0.00 | 0.00 | 76 | 1019.3 |
| 20260508160909 | 52 | 142 | 5.0 | 7.0 | 0.00 | 0.00 | 0.00 | 77 | 1019.3 |
| 20260508160403 | 53 | 155 | 5.0 | 6.0 | 0.00 | 0.00 | 0.00 | 77 | 1019.4 |
| 20260508155858 | 52 | 185 | 11.0 | 14.0 | 0.00 | 0.00 | 0.00 | 77 | 1019.4 |
| 20260508155355 | 53 | 187 | 7.0 | 8.0 | 0.00 | 0.00 | 0.00 | 76 | 1019.2 |
| 20260508154852 | 53 | 199 | 11.0 | 11.0 | 0.00 | 0.00 | 0.00 | 77 | 1019.4 |
| 20260508154350 | 52 | 197 | 3.0 | 5.0 | 0.00 | 0.00 | 0.00 | 78 | 1019.3 |
| 20260508153846 | 52 | 188 | 5.0 | 7.0 | 0.00 | 0.00 | 0.00 | 79 | 1019.2 |
| 20260508153343 | 51 | 240 | 2.0 | 2.0 | 0.00 | 0.00 | 0.00 | 80 | 1019.5 |
| 20260508152839 | 51 | 190 | 12.0 | 15.0 | 0.00 | 0.00 | 0.00 | 80 | 1019.6 |
| 20260508152336 | 51 | 188 | 6.0 | 9.0 | 0.00 | 0.00 | 0.00 | 80 | 1019.4 |
| 20260508151832 | 52 | 175 | 9.0 | 11.0 | 0.00 | 0.00 | 0.00 | 79 | 1019.5 |
| 20260508151329 | 52 | 185 | 4.0 | 7.0 | 0.00 | 0.00 | 0.00 | 80 | 1019.5 |
| 20260508150826 | 52 | 195 | 4.0 | 7.0 | 0.00 | 0.00 | 0.00 | 80 | 1019.4 |
| 20260508150322 | 51 | 153 | 11.0 | 15.0 | 0.00 | 0.00 | 0.00 | 80 | 1019.2 |
| 20260508145818 | 51 | 202 | 7.0 | 8.0 | 0.00 | 0.00 | 0.00 | 81 | 1019.2 |
| 20260508145314 | 51 | 263 | 7.0 | 8.0 | 0.00 | 0.00 | 0.00 | 82 | 1019.2 |
| 20260508144812 | 51 | 209 | 6.0 | 10.0 | 0.00 | 0.00 | 0.00 | 83 | 1019.2 |
| 20260508144309 | 51 | 191 | 11.0 | 15.0 | 0.00 | 0.00 | 0.00 | 83 | 1018.9 |
| 20260508143801 | 51 | 251 | 8.0 | 13.0 | 0.00 | 0.00 | 0.00 | 83 | 1019.0 |
| 20260508143258 | 51 | 187 | 3.0 | 7.0 | 0.00 | 0.00 | 0.00 | 84 | 1018.8 |
| 20260508142755 | 50 | 191 | 3.0 | 5.0 | 0.00 | 0.00 | 0.00 | 84 | 1018.7 |
| 20260508142252 | 50 | 215 | 5.0 | 7.0 | 0.00 | 0.00 | 0.00 | 86 | 1018.6 |
| 20260508141748 | 50 | 178 | 5.0 | 7.0 | 0.00 | 0.00 | 0.00 | 86 | 1018.7 |
| 20260508141246 | 50 | 185 | 6.0 | 7.0 | 0.00 | 0.00 | 0.00 | 86 | 1018.7 |
| 20260508140743 | 50 | 196 | 7.0 | 9.0 | 0.00 | 0.00 | 0.00 | 86 | 1018.6 |
| 20260508140239 | 50 | 199 | 7.0 | 8.0 | 0.00 | 0.00 | 0.00 | 86 | 1018.2 |
| 20260508135735 | 51 | 186 | 4.0 | 5.0 | 0.00 | 0.00 | 0.00 | 86 | 1018.4 |
| 20260508135232 | 51 | 195 | 7.0 | 8.0 | 0.00 | 0.00 | 0.00 | 86 | 1018.1 |
| 20260508134727 | 51 | 190 | 7.0 | 7.0 | 0.00 | 0.00 | 0.00 | 85 | 1018.2 |
| 20260508134225 | 51 | 198 | 6.0 | 7.0 | 0.00 | 0.00 | 0.00 | 85 | 1018.0 |
| 20260508133721 | 51 | 201 | 3.0 | 3.0 | 0.00 | 0.00 | 0.00 | 85 | 1017.9 |
| 20260508133219 | 51 | 161 | 6.0 | 8.0 | 0.00 | 0.00 | 0.00 | 85 | 1017.5 |
| 20260508132717 | 51 | 180 | 5.0 | 6.0 | 0.00 | 0.00 | 0.00 | 85 | 1017.5 |
| 20260508132214 | 51 | 172 | 5.0 | 7.0 | 0.00 | 0.00 | 0.00 | 85 | 1017.7 |
| 20260508131709 | 51 | 199 | 3.0 | 3.0 | 0.00 | 0.00 | 0.00 | 85 | 1017.8 |
| 20260508131206 | 51 | 200 | 3.0 | 3.0 | 0.00 | 0.00 | 0.00 | 85 | 1017.6 |
| 20260508130703 | 51 | 199 | 3.0 | 5.0 | 0.00 | 0.00 | 0.00 | 85 | 1017.5 |
| 20260508130200 | 51 | 212 | 6.0 | 8.0 | 0.00 | 0.00 | 0.00 | 86 | 1017.5 |
| 20260508125655 | 51 | 156 | 1.0 | 1.0 | 0.00 | 0.00 | 0.00 | 86 | 1017.4 |
| 20260508125152 | 51 | 196 | 1.0 | 1.0 | 0.00 | 0.00 | 0.00 | 86 | 1017.3 |
| 20260508124650 | 51 | 220 | 2.0 | 2.0 | 0.00 | 0.00 | 0.00 | 87 | 1017.1 |
| 20260508124147 | 51 | 217 | 3.0 | 5.0 | 0.00 | 0.00 | 0.00 | 87 | 1017.2 |
| 20260508123646 | 51 | 206 | 4.0 | 6.0 | 0.00 | 0.00 | 0.00 | 87 | 1017.1 |
| 20260508123143 | 51 | 212 | 1.0 | 2.0 | 0.00 | 0.00 | 0.00 | 88 | 1017.1 |
| 20260508122639 | 51 | 196 | 6.0 | 7.0 | 0.00 | 0.00 | 0.00 | 88 | 1017.3 |
| 20260508122136 | 51 | 221 | 3.0 | 5.0 | 0.00 | 0.00 | 0.00 | 89 | 1017.1 |
| 20260508121634 | 51 | 234 | 3.0 | 3.0 | 0.00 | 0.00 | 0.00 | 89 | 1017.0 |
| 20260508121132 | 51 | 157 | 1.0 | 1.0 | 0.00 | 0.00 | 0.00 | 89 | 1017.0 |
| 20260508120629 | 51 | 155 | 2.0 | 2.0 | 0.00 | 0.00 | 0.00 | 89 | 1017.0 |
| 20260508120127 | 51 | 189 | 2.0 | 2.0 | 0.00 | 0.00 | 0.00 | 89 | 1017.1 |
| 20260508115625 | 51 | 180 | 2.0 | 3.0 | 0.00 | 0.00 | 0.00 | 89 | 1017.2 |
| 20260508115121 | 51 | 192 | 5.0 | 7.0 | 0.00 | 0.00 | 0.00 | 90 | 1017.0 |
| 20260508114618 | 51 | 188 | 5.0 | 6.0 | 0.00 | 0.00 | 0.00 | 90 | 1017.0 |
| 20260508114114 | 52 | 227 | 0.0 | 0.0 | 0.00 | 0.00 | 0.00 | 90 | 1017.2 |
| 20260508113612 | 52 | 194 | 5.0 | 7.0 | 0.00 | 0.00 | 0.00 | 90 | 1016.9 |
| 20260508113110 | 52 | 220 | 4.0 | 5.0 | 0.00 | 0.00 | 0.00 | 91 | 1017.0 |
| 20260508112605 | 51 | 197 | 4.0 | 6.0 | 0.00 | 0.00 | 0.00 | 91 | 1016.8 |
| 20260508112103 | 52 | 232 | 0.0 | 0.0 | 0.00 | 0.00 | 0.00 | 91 | 1016.7 |
| 20260508111559 | 52 | 222 | 1.0 | 2.0 | 0.00 | 0.00 | 0.00 | 91 | 1016.6 |
| 20260508111057 | 51 | 178 | 2.0 | 2.0 | 0.00 | 0.00 | 0.00 | 91 | 1016.7 |
| 20260508110555 | 51 | 214 | 2.0 | 2.0 | 0.00 | 0.00 | 0.00 | 92 | 1016.6 |
| 20260508110050 | 51 | 252 | 0.0 | 1.0 | 0.00 | 0.00 | 0.00 | 92 | 1016.4 |
| 20260508105545 | 51 | 262 | 0.0 | 0.0 | 0.00 | 0.00 | 0.00 | 92 | 1016.6 |
| 20260508105043 | 51 | 256 | 0.0 | 0.0 | 0.00 | 0.00 | 0.00 | 92 | 1016.7 |
| 20260508104541 | 51 | 252 | 1.0 | 1.0 | 0.00 | 0.00 | 0.00 | 93 | 1016.5 |
| 20260508104037 | 51 | 265 | 1.0 | 1.0 | 0.00 | 0.00 | 0.00 | 93 | 1016.4 |
| 20260508103534 | 51 | 274 | 1.0 | 1.0 | 0.00 | 0.00 | 0.00 | 93 | 1016.2 |
| 20260508103031 | 51 | 273 | 0.0 | 0.0 | 0.00 | 0.00 | 0.00 | 94 | 1016.5 |
| 20260508102529 | 51 | 272 | 1.0 | 1.0 | 0.00 | 0.00 | 0.00 | 94 | 1016.4 |
| 20260508102026 | 51 | 273 | 0.0 | 0.0 | 0.00 | 0.00 | 0.00 | 94 | 1016.6 |
| 20260508101524 | 51 | 260 | 2.0 | 3.0 | 0.00 | 0.00 | 0.00 | 94 | 1016.5 |
| 20260508101020 | 51 | 282 | 0.0 | 0.0 | 0.00 | 0.00 | 0.00 | 94 | 1016.1 |
| 20260508100519 | 51 | 277 | 0.0 | 0.0 | 0.00 | 0.00 | 0.00 | 94 | 1016.0 |
| 20260508100015 | 51 | 290 | 0.0 | 0.0 | 0.00 | 0.00 | 0.00 | 94 | 1016.1 |
| 20260508095513 | 51 | 293 | 0.0 | 1.0 | 0.00 | 0.00 | 0.00 | 94 | 1016.4 |
| 20260508095009 | 51 | 285 | 0.0 | 0.0 | 0.00 | 0.00 | 0.00 | 94 | 1016.2 |
| 20260508094506 | 51 | 287 | 1.0 | 1.0 | 0.00 | 0.00 | 0.00 | 94 | 1016.2 |
| 20260508094003 | 51 | 288 | 0.0 | 1.0 | 0.00 | 0.00 | 0.00 | 93 | 1016.4 |
| 20260508093500 | 51 | 281 | 1.0 | 1.0 | 0.00 | 0.00 | 0.00 | 93 | 1016.3 |
| 20260508092958 | 51 | 295 | 0.0 | 0.0 | 0.00 | 0.00 | 0.00 | 93 | 1015.8 |
| 20260508092455 | 51 | 300 | 0.0 | 0.0 | 0.00 | 0.00 | 0.00 | 93 | 1016.1 |
| 20260508091954 | 51 | 292 | 1.0 | 1.0 | 0.00 | 0.00 | 0.00 | 93 | 1016.1 |
| 20260508091450 | 51 | 299 | 1.0 | 2.0 | 0.00 | 0.00 | 0.00 | 93 | 1016.4 |
| 20260508090947 | 51 | 274 | 1.0 | 2.0 | 0.00 | 0.00 | 0.00 | 93 | 1016.0 |
| 20260508090446 | 51 | 280 | 1.0 | 3.0 | 0.00 | 0.00 | 0.00 | 93 | 1016.1 |
| 20260508085941 | 51 | 279 | 0.0 | 0.0 | 0.00 | 0.00 | 0.00 | 93 | 1016.2 |
| 20260508085438 | 51 | 283 | 0.0 | 0.0 | 0.00 | 0.00 | 0.00 | 93 | 1016.1 |
| 20260508084935 | 51 | 292 | 0.0 | 0.0 | 0.00 | 0.00 | 0.00 | 92 | 1016.2 |
| 20260508084432 | 52 | 293 | 0.0 | 0.0 | 0.00 | 0.00 | 0.00 | 92 | 1016.3 |
| 20260508083930 | 52 | 285 | 0.0 | 0.0 | 0.00 | 0.00 | 0.00 | 92 | 1016.3 |
| 20260508083427 | 52 | 292 | 0.0 | 0.0 | 0.00 | 0.00 | 0.00 | 92 | 1016.3 |
| 20260508082926 | 52 | 289 | 0.0 | 0.0 | 0.00 | 0.00 | 0.00 | 92 | 1016.1 |
| 20260508082424 | 52 | 286 | 0.0 | 0.0 | 0.00 | 0.00 | 0.00 | 92 | 1016.3 |
| 20260508081922 | 52 | 290 | 0.0 | 0.0 | 0.00 | 0.00 | 0.00 | 92 | 1016.3 |
| 20260508081418 | 52 | 285 | 0.0 | 0.0 | 0.00 | 0.00 | 0.00 | 92 | 1016.4 |
| 20260508080915 | 52 | 291 | 0.0 | 0.0 | 0.00 | 0.00 | 0.00 | 91 | 1016.3 |
| 20260508080413 | 52 | 275 | 0.0 | 0.0 | 0.00 | 0.00 | 0.00 | 91 | 1016.3 |
| 20260508075909 | 53 | 279 | 0.0 | 0.0 | 0.00 | 0.00 | 0.00 | 91 | 1016.3 |
| 20260508075407 | 53 | 281 | 0.0 | 0.0 | 0.00 | 0.00 | 0.00 | 91 | 1016.2 |
| 20260508074904 | 53 | 290 | 0.0 | 0.0 | 0.00 | 0.00 | 0.00 | 90 | 1016.2 |
| 20260508074401 | 53 | 280 | 0.0 | 0.0 | 0.00 | 0.00 | 0.00 | 90 | 1016.4 |
| 20260508073858 | 53 | 281 | 0.0 | 0.0 | 0.00 | 0.00 | 0.00 | 90 | 1016.3 |
| 20260508073356 | 53 | 279 | 0.0 | 0.0 | 0.00 | 0.00 | 0.00 | 90 | 1016.4 |
| 20260508072852 | 53 | 279 | 0.0 | 0.0 | 0.00 | 0.00 | 0.00 | 90 | 1016.1 |
| 20260508072349 | 53 | 281 | 0.0 | 0.0 | 0.00 | 0.00 | 0.00 | 90 | 1016.5 |
| 20260508071846 | 53 | 281 | 0.0 | 0.0 | 0.00 | 0.00 | 0.00 | 90 | 1016.1 |
| 20260508071345 | 53 | 290 | 0.0 | 0.0 | 0.00 | 0.00 | 0.00 | 89 | 1016.3 |
| 20260508070842 | 53 | 290 | 0.0 | 0.0 | 0.00 | 0.00 | 0.00 | 89 | 1016.2 |
| 20260508070340 | 54 | 286 | 0.0 | 0.0 | 0.00 | 0.00 | 0.00 | 89 | 1016.3 |
| 20260508065837 | 53 | 273 | 0.0 | 0.0 | 0.00 | 0.00 | 0.00 | 89 | 1016.4 |
| 20260508065335 | 53 | 288 | 0.0 | 0.0 | 0.00 | 0.00 | 0.00 | 88 | 1016.5 |
| 20260508064833 | 53 | 287 | 0.0 | 0.0 | 0.00 | 0.00 | 0.00 | 88 | 1016.5 |
| 20260508064330 | 54 | 286 | 0.0 | 0.0 | 0.00 | 0.00 | 0.00 | 88 | 1016.5 |
| 20260508063828 | 54 | 286 | 0.0 | 0.0 | 0.00 | 0.00 | 0.00 | 87 | 1016.2 |
| 20260508063326 | 54 | 282 | 0.0 | 0.0 | 0.00 | 0.00 | 0.00 | 85 | 1016.4 |
| 20260508062822 | 53 | 290 | 0.0 | 0.0 | 0.00 | 0.00 | 0.00 | 83 | 1016.3 |
| 20260508062320 | 54 | 287 | 0.0 | 0.0 | 0.00 | 0.00 | 0.00 | 83 | 1016.5 |
| 20260508061816 | 54 | 288 | 0.0 | 0.0 | 0.00 | 0.00 | 0.00 | 82 | 1016.3 |
| 20260508061314 | 55 | 290 | 0.0 | 0.0 | 0.00 | 0.00 | 0.00 | 82 | 1016.4 |
| 20260508060810 | 55 | 289 | 0.0 | 0.0 | 0.00 | 0.00 | 0.00 | 81 | 1016.5 |
| 20260508060308 | 55 | 287 | 0.0 | 0.0 | 0.00 | 0.00 | 0.00 | 80 | 1016.3 |
| 20260508055803 | 56 | 300 | 0.0 | 0.0 | 0.00 | 0.00 | 0.00 | 79 | 1016.6 |
| 20260508055301 | 56 | 296 | 0.0 | 0.0 | 0.00 | 0.00 | 0.00 | 78 | 1016.7 |
| 20260508054756 | 57 | 286 | 0.0 | 0.0 | 0.00 | 0.00 | 0.00 | 77 | 1016.6 |
| 20260508054255 | 57 | 288 | 0.0 | 0.0 | 0.00 | 0.00 | 0.00 | 76 | 1016.5 |
| 20260508053751 | 57 | 287 | 0.0 | 0.0 | 0.00 | 0.00 | 0.00 | 75 | 1016.6 |
| 20260508053249 | 57 | 286 | 0.0 | 0.0 | 0.00 | 0.00 | 0.00 | 74 | 1016.4 |
| 20260508052746 | 57 | 287 | 0.0 | 0.0 | 0.00 | 0.00 | 0.00 | 75 | 1016.6 |
| 20260508052243 | 57 | 314 | 0.0 | 0.0 | 0.00 | 0.00 | 0.00 | 74 | 1016.5 |
| 20260508051739 | 57 | 339 | 0.0 | 0.0 | 0.00 | 0.00 | 0.00 | 73 | 1016.5 |
| 20260508051235 | 58 | 348 | 0.0 | 0.0 | 0.00 | 0.00 | 0.00 | 73 | 1016.3 |
| 20260508050731 | 58 | 28 | 0.0 | 0.0 | 0.00 | 0.00 | 0.00 | 72 | 1016.4 |
| 20260508050230 | 58 | 26 | 0.0 | 0.0 | 0.00 | 0.00 | 0.00 | 72 | 1016.5 |
| 20260508045724 | 58 | 359 | 0.0 | 0.0 | 0.00 | 0.00 | 0.00 | 72 | 1016.5 |
| 20260508045222 | 58 | 359 | 0.0 | 0.0 | 0.00 | 0.00 | 0.00 | 72 | 1016.6 |
| 20260508044720 | 59 | 340 | 0.0 | 0.0 | 0.00 | 0.00 | 0.00 | 71 | 1016.5 |
| 20260508044216 | 59 | 14 | 0.0 | 0.0 | 0.00 | 0.00 | 0.00 | 71 | 1016.6 |
| 20260508043712 | 59 | 357 | 0.0 | 0.0 | 0.00 | 0.00 | 0.00 | 71 | 1016.6 |
| 20260508043210 | 59 | 34 | 0.0 | 0.0 | 0.00 | 0.00 | 0.00 | 70 | 1016.6 |
| 20260508042706 | 59 | 15 | 0.0 | 0.0 | 0.00 | 0.00 | 0.00 | 70 | 1016.6 |
| 20260508042204 | 59 | 350 | 0.0 | 0.0 | 0.00 | 0.00 | 0.00 | 70 | 1016.7 |
| 20260508041700 | 59 | 17 | 0.0 | 0.0 | 0.00 | 0.00 | 0.00 | 69 | 1016.9 |
| 20260508041157 | 59 | 344 | 0.0 | 0.0 | 0.00 | 0.00 | 0.00 | 69 | 1016.6 |
| 20260508040653 | 60 | 334 | 0.0 | 0.0 | 0.00 | 0.00 | 0.00 | 69 | 1016.7 |
| 20260508040151 | 60 | 343 | 0.0 | 0.0 | 0.00 | 0.00 | 0.00 | 68 | 1016.7 |
| 20260508035648 | 60 | 346 | 1.0 | 1.0 | 0.00 | 0.00 | 0.00 | 68 | 1016.7 |
| 20260508035145 | 60 | 3 | 1.0 | 1.0 | 0.00 | 0.00 | 0.00 | 68 | 1016.5 |
| 20260508034642 | 60 | 7 | 2.0 | 2.0 | 0.00 | 0.00 | 0.00 | 68 | 1016.4 |
| 20260508034139 | 60 | 29 | 3.0 | 3.0 | 0.00 | 0.00 | 0.00 | 67 | 1016.5 |
| 20260508033636 | 60 | 16 | 2.0 | 2.0 | 0.00 | 0.00 | 0.00 | 68 | 1016.4 |
| 20260508033134 | 61 | 345 | 0.0 | 0.0 | 0.00 | 0.00 | 0.00 | 67 | 1016.6 |
| 20260508032630 | 61 | 358 | 1.0 | 1.0 | 0.00 | 0.00 | 0.00 | 66 | 1016.5 |
| 20260508032128 | 61 | 4 | 1.0 | 2.0 | 0.00 | 0.00 | 0.00 | 66 | 1016.7 |
| 20260508031625 | 61 | 357 | 2.0 | 2.0 | 0.00 | 0.00 | 0.00 | 65 | 1016.5 |
| 20260508031121 | 61 | 17 | 2.0 | 3.0 | 0.00 | 0.00 | 0.00 | 64 | 1016.5 |
| 20260508030618 | 62 | 2 | 1.0 | 2.0 | 0.00 | 0.00 | 0.00 | 64 | 1016.6 |
| 20260508030116 | 62 | 298 | 0.0 | 0.0 | 0.00 | 0.00 | 0.00 | 63 | 1016.6 |
| 20260508025612 | 63 | 296 | 0.0 | 1.0 | 0.00 | 0.00 | 0.00 | 62 | 1016.7 |
| 20260508025109 | 63 | 311 | 1.0 | 1.0 | 0.00 | 0.00 | 0.00 | 62 | 1016.6 |
| 20260508024605 | 63 | 289 | 1.0 | 2.0 | 0.00 | 0.00 | 0.00 | 61 | 1016.9 |
| 20260508024102 | 63 | 286 | 0.0 | 0.0 | 0.00 | 0.00 | 0.00 | 62 | 1016.8 |
| 20260508023558 | 63 | 297 | 0.0 | 0.0 | 0.00 | 0.00 | 0.00 | 61 | 1016.8 |
| 20260508023056 | 63 | 293 | 1.0 | 1.0 | 0.00 | 0.00 | 0.00 | 61 | 1016.6 |
| 20260508022551 | 63 | 293 | 0.0 | 1.0 | 0.00 | 0.00 | 0.00 | 61 | 1016.6 |
| 20260508022049 | 63 | 293 | 0.0 | 1.0 | 0.00 | 0.00 | 0.00 | 61 | 1016.9 |
| 20260508021544 | 64 | 284 | 4.0 | 5.0 | 0.00 | 0.00 | 0.00 | 59 | 1016.8 |
| 20260508021040 | 65 | 235 | 1.0 | 2.0 | 0.00 | 0.00 | 0.00 | 58 | 1016.8 |
| 20260508020538 | 64 | 305 | 0.0 | 0.0 | 0.00 | 0.00 | 0.00 | 58 | 1017.0 |
| 20260508020036 | 65 | 292 | 3.0 | 3.0 | 0.00 | 0.00 | 0.00 | 58 | 1017.0 |
| 20260508015533 | 65 | 297 | 0.0 | 0.0 | 0.00 | 0.00 | 0.00 | 57 | 1016.8 |
| 20260508015030 | 64 | 314 | 0.0 | 0.0 | 0.00 | 0.00 | 0.00 | 57 | 1017.0 |
| 20260508014526 | 64 | 197 | 2.0 | 3.0 | 0.00 | 0.00 | 0.00 | 57 | 1016.8 |
| 20260508014022 | 64 | 229 | 2.0 | 2.0 | 0.00 | 0.00 | 0.00 | 58 | 1016.8 |
| 20260508013519 | 64 | 317 | 0.0 | 0.0 | 0.00 | 0.00 | 0.00 | 58 | 1016.9 |
| 20260508013016 | 64 | 163 | 4.0 | 5.0 | 0.00 | 0.00 | 0.00 | 58 | 1016.9 |
| 20260508012513 | 64 | 116 | 4.0 | 6.0 | 0.00 | 0.00 | 0.00 | 57 | 1017.1 |
| 20260508012011 | 63 | 345 | 0.0 | 1.0 | 0.00 | 0.00 | 0.00 | 59 | 1017.1 |
| 20260508011509 | 66 | 151 | 4.0 | 5.0 | 0.00 | 0.00 | 0.00 | 57 | 1017.0 |
| 20260508011006 | 66 | 287 | 0.0 | 1.0 | 0.00 | 0.00 | 0.00 | 56 | 1017.3 |
| 20260508010502 | 66 | 273 | 2.0 | 2.0 | 0.00 | 0.00 | 0.00 | 55 | 1017.3 |
| 20260508010000 | 66 | 262 | 3.0 | 3.0 | 0.00 | 0.00 | 0.00 | 55 | 1017.4 |
| 20260508005456 | 65 | 319 | 0.0 | 0.0 | 0.00 | 0.00 | 0.00 | 56 | 1017.4 |
| 20260508004953 | 64 | 63 | 2.0 | 2.0 | 0.00 | 0.00 | 0.00 | 57 | 1017.5 |
| 20260508004449 | 65 | 354 | 4.0 | 5.0 | 0.00 | 0.00 | 0.00 | 57 | 1017.4 |
| 20260508003946 | 64 | 346 | 1.0 | 2.0 | 0.00 | 0.00 | 0.00 | 59 | 1017.4 |
| 20260508003443 | 65 | 12 | 4.0 | 5.0 | 0.00 | 0.00 | 0.00 | 58 | 1017.6 |
| 20260508002940 | 65 | 233 | 1.0 | 1.0 | 0.00 | 0.00 | 0.00 | 57 | 1017.7 |
| 20260508002436 | 65 | 297 | 1.0 | 1.0 | 0.00 | 0.00 | 0.00 | 58 | 1017.7 |
| 20260508001932 | 65 | 349 | 1.0 | 2.0 | 0.00 | 0.00 | 0.00 | 57 | 1017.5 |
| 20260508001429 | 65 | 273 | 5.0 | 6.0 | 0.00 | 0.00 | 0.00 | 56 | 1017.8 |
| 20260508000925 | 66 | 261 | 1.0 | 2.0 | 0.00 | 0.00 | 0.00 | 57 | 1017.6 |
| 20260508000421 | 64 | 299 | 2.0 | 3.0 | 0.00 | 0.00 | 0.00 | 60 | 1017.8 |
| 20260507235918 | 63 | 320 | 1.0 | 2.0 | 0.00 | 0.00 | 0.00 | 62 | 1017.7 |
| 20260507235415 | 64 | 256 | 0.0 | 0.0 | 0.00 | 0.00 | 0.00 | 60 | 1017.8 |
| 20260507234912 | 64 | 285 | 2.0 | 3.0 | 0.00 | 0.00 | 0.00 | 61 | 1018.0 |
| 20260507234409 | 64 | 316 | 0.0 | 0.0 | 0.00 | 0.00 | 0.00 | 60 | 1017.8 |
| 20260507233906 | 63 | 283 | 6.0 | 7.0 | 0.00 | 0.00 | 0.00 | 61 | 1017.8 |
| 20260507233403 | 64 | 261 | 5.0 | 6.0 | 0.00 | 0.00 | 0.00 | 60 | 1017.7 |
| 20260507232901 | 63 | 311 | 2.0 | 3.0 | 0.00 | 0.00 | 0.00 | 61 | 1018.0 |
| 20260507232357 | 65 | 284 | 3.0 | 6.0 | 0.00 | 0.00 | 0.00 | 60 | 1017.9 |
| 20260507231855 | 63 | 302 | 4.0 | 6.0 | 0.00 | 0.00 | 0.00 | 61 | 1017.9 |
| 20260507231351 | 64 | 297 | 6.0 | 8.0 | 0.00 | 0.00 | 0.00 | 60 | 1018.0 |
| 20260507230848 | 64 | 296 | 0.0 | 1.0 | 0.00 | 0.00 | 0.00 | 61 | 1018.2 |
| 20260507230345 | 63 | 259 | 4.0 | 7.0 | 0.00 | 0.00 | 0.00 | 61 | 1018.2 |
| 20260507225845 | 62 | 325 | 4.0 | 6.0 | 0.00 | 0.00 | 0.00 | 61 | 1018.1 |
| 20260507225341 | 64 | 301 | 5.0 | 7.0 | 0.00 | 0.00 | 0.00 | 60 | 1018.3 |
| 20260507224837 | 63 | 306 | 3.0 | 5.0 | 0.00 | 0.00 | 0.00 | 61 | 1018.4 |
| 20260507224334 | 63 | 320 | 3.0 | 5.0 | 0.00 | 0.00 | 0.00 | 61 | 1018.5 |
| 20260507223830 | 64 | 257 | 6.0 | 7.0 | 0.00 | 0.00 | 0.00 | 60 | 1018.3 |
| 20260507223326 | 63 | 241 | 4.0 | 6.0 | 0.00 | 0.00 | 0.00 | 60 | 1018.3 |
| 20260507222824 | 63 | 294 | 1.0 | 1.0 | 0.00 | 0.00 | 0.00 | 61 | 1018.5 |
| 20260507222320 | 66 | 303 | 6.0 | 8.0 | 0.00 | 0.00 | 0.00 | 57 | 1018.6 |
| 20260507221817 | 64 | 261 | 4.0 | 6.0 | 0.00 | 0.00 | 0.00 | 59 | 1018.5 |
| 20260507221314 | 65 | 268 | 1.0 | 2.0 | 0.00 | 0.00 | 0.00 | 59 | 1018.5 |
| 20260507220810 | 65 | 295 | 6.0 | 8.0 | 0.00 | 0.00 | 0.00 | 57 | 1018.4 |